Data for 12/05/2017

Time Sea-Level Adjusted Pressure Absolute Pressure Temperature Relative Humidity Dew Point   
(mb) (inHg) (mb) (inHg) (C) (F) (%) (C) (F)
00:05 1025 30.27 855 25.25 -7.9 17.8 73 -11.9 10.6
00:10 1026 30.3 855 25.25 -7.9 17.8 73 -11.9 10.6
00:15 1026 30.3 855 25.25 -7.8 17.9 73 -11.8 10.8
00:20 1026 30.3 855 25.25 -7.7 18.2 72 -11.9 10.7
00:25 1025 30.27 855 25.25 -7.5 18.5 70 -12 10.4
00:30 1025 30.27 855 25.25 -7.5 18.6 70 -12.1 10.2
00:35 1025 30.27 855 25.25 -7.8 18 71 -12.2 10
00:40 1026 30.3 855 25.25 -8 17.6 72 -12.3 9.9
00:45 1026 30.3 855 25.25 -8.2 17.3 72 -12.4 9.6
00:50 1026 30.3 855 25.25 -8.4 16.8 73 -12.5 9.5
00:55 1026 30.3 855 25.25 -8.6 16.5 73 -12.6 9.4
01:00 1026 30.3 855 25.25 -8.9 16.1 74 -12.7 9.2
01:05 1026 30.3 855 25.25 -9 15.8 75 -12.7 9.1
01:10 1026 30.3 855 25.25 -9 15.8 75 -12.7 9.2
01:15 1026 30.3 855 25.25 -8.8 16.2 74 -12.7 9.2
01:20 1026 30.3 855 25.25 -8.7 16.3 74 -12.6 9.3
01:25 1026 30.3 855 25.25 -8.8 16.2 75 -12.5 9.4
01:30 1026 30.3 856 25.28 -9 15.8 77 -12.4 9.7
01:35 1027 30.33 856 25.28 -9.1 15.6 77 -12.5 9.6
01:40 1027 30.33 856 25.28 -9 15.8 76 -12.6 9.4
01:45 1027 30.33 856 25.28 -8.9 16 76 -12.4 9.7
01:50 1027 30.33 856 25.28 -8.6 16.5 74 -12.4 9.7
01:55 1027 30.33 856 25.28 -8.5 16.7 75 -12.2 10
02:00 1027 30.33 856 25.28 -8.6 16.5 75 -12.3 9.9
02:05 1027 30.33 856 25.28 -8.5 16.7 75 -12.2 10
02:10 1027 30.33 856 25.28 -8.4 16.9 74 -12.2 10
02:15 1027 30.33 856 25.28 -8.3 17.1 74 -12.1 10.2
02:20 1027 30.33 856 25.28 -8.3 17.1 74 -12.1 10.3
02:25 1027 30.33 856 25.28 -8.2 17.3 73 -12.1 10.2
02:30 1027 30.33 856 25.28 -8.1 17.4 74 -12 10.4
02:35 1027 30.33 856 25.28 -8.1 17.4 73 -12 10.3
02:40 1027 30.33 856 25.28 -8 17.5 74 -11.9 10.6
02:45 1027 30.33 856 25.28 -8.1 17.3 74 -11.9 10.5
02:50 1027 30.33 856 25.28 -8.2 17.2 74 -12 10.4
02:55 1027 30.33 856 25.28 -8.2 17.3 74 -12 10.4
03:00 1027 30.33 856 25.28 -8.4 17 75 -12 10.3
03:05 1027 30.33 856 25.28 -8.5 16.8 75 -12.2 10.1
03:10 1027 30.33 856 25.28 -8.5 16.7 75 -12.2 10
03:15 1027 30.33 856 25.28 -8.4 16.8 75 -12.1 10.2
03:20 1027 30.33 856 25.28 -8.5 16.6 75 -12.3 9.9
03:25 1027 30.33 856 25.28 -8.7 16.4 75 -12.3 9.9
03:30 1027 30.33 856 25.28 -8.8 16.3 77 -12.1 10.3
03:35 1027 30.33 856 25.28 -8.5 16.7 75 -12.1 10.3
03:40 1027 30.33 856 25.28 -8.3 17 75 -12.1 10.3
03:45 1027 30.33 856 25.28 -8.4 17 76 -11.8 10.7
03:50 1027 30.33 857 25.31 -8.5 16.7 77 -11.8 10.7
03:55 1027 30.33 857 25.31 -8.6 16.6 77 -11.9 10.5
04:00 1027 30.33 857 25.31 -8.4 16.8 76 -11.9 10.5
04:05 1027 30.33 857 25.31 -8.3 17.2 76 -11.8 10.7
04:10 1027 30.33 857 25.31 -8.3 17 75 -12.1 10.2
04:15 1027 30.33 857 25.31 -8.1 17.3 75 -11.9 10.6
04:20 1028 30.36 857 25.31 -8.3 17.1 75 -11.9 10.5
04:25 1028 30.36 857 25.31 -8.2 17.3 75 -11.8 10.7
04:30 1028 30.36 857 25.31 -8.1 17.5 74 -11.9 10.6
04:35 1028 30.36 857 25.31 -7.8 17.9 73 -11.8 10.7
04:40 1028 30.36 857 25.31 -7.6 18.2 72 -11.8 10.7
04:45 1028 30.36 857 25.31 -7.6 18.3 72 -11.8 10.7
04:50 1028 30.36 857 25.31 -7.8 18 75 -11.5 11.3
04:55 1028 30.36 857 25.31 -7.9 17.7 74 -11.7 10.9
05:00 1028 30.36 857 25.31 -8.1 17.5 74 -11.9 10.5
05:05 1028 30.36 857 25.31 -8.1 17.5 74 -11.8 10.7
05:10 1028 30.36 857 25.31 -8.1 17.5 75 -11.8 10.8
05:15 1028 30.36 857 25.31 -8.1 17.5 76 -11.5 11.2
05:20 1028 30.36 857 25.31 -8.1 17.5 77 -11.4 11.4
05:25 1028 30.36 858 25.34 -8 17.6 77 -11.4 11.4
05:30 1028 30.36 858 25.34 -8 17.6 76 -11.5 11.2
05:35 1029 30.39 858 25.34 -8 17.6 75 -11.7 11
05:40 1029 30.39 858 25.34 -7.7 18.2 74 -11.6 11.1
05:45 1029 30.39 858 25.34 -7.7 18.2 74 -11.5 11.2
05:50 1029 30.39 858 25.34 -7.7 18.2 72 -11.9 10.7
05:55 1029 30.39 858 25.34 -7.6 18.4 73 -11.5 11.2
06:00 1029 30.39 858 25.34 -7.4 18.6 74 -11.4 11.5
06:05 1029 30.39 858 25.34 -7.4 18.7 73 -11.4 11.4
06:10 1029 30.39 858 25.34 -7.2 19.1 73 -11.2 11.8
06:15 1029 30.39 858 25.34 -6.9 19.5 73 -11.1 12.1
06:20 1029 30.39 858 25.34 -6.9 19.5 74 -10.9 12.4
06:25 1029 30.39 858 25.34 -7.1 19.2 74 -10.9 12.4
06:30 1029 30.39 858 25.34 -7.1 19.3 74 -11 12.2
06:35 1029 30.39 858 25.34 -7 19.4 73 -11 12.2
06:40 1029 30.39 858 25.34 -6.9 19.5 74 -10.9 12.4
06:45 1029 30.39 858 25.34 -6.8 19.7 74 -10.8 12.6
06:50 1029 30.39 858 25.34 -6.6 20 71 -11 12.2
06:55 1029 30.39 858 25.34 -6.5 20.2 73 -10.6 12.9
07:00 1029 30.39 858 25.34 -6.6 20.1 73 -10.6 13
07:05 1029 30.39 858 25.34 -6.6 20 73 -10.8 12.6
07:10 1029 30.39 858 25.34 -6.6 20.1 73 -10.7 12.7
07:15 1029 30.39 858 25.34 -6.5 20.3 73 -10.6 12.9
07:20 1029 30.39 858 25.34 -6.6 20.2 73 -10.6 12.9
07:25 1029 30.39 858 25.34 -6.5 20.3 75 -10.2 13.6
07:30 1029 30.39 858 25.34 -6.4 20.4 74 -10.3 13.4
07:35 1029 30.39 858 25.34 -6.5 20.3 75 -10.3 13.4
07:40 1029 30.39 858 25.34 -6.5 20.2 74 -10.4 13.3
07:45 1029 30.39 858 25.34 -6.3 20.6 73 -10.3 13.4
07:50 1029 30.39 858 25.34 -6.1 21 72 -10.3 13.4
07:55 1029 30.39 858 25.34 -5.9 21.4 70 -10.5 13.1
08:00 1029 30.39 858 25.34 -5.5 22 71 -9.9 14.1
08:05 1029 30.39 859 25.37 -5.3 22.5 71 -9.7 14.5
08:10 1029 30.39 858 25.34 -5.4 22.2 72 -9.7 14.5
08:15 1029 30.39 858 25.34 -5.2 22.6 69 -10 14.1
08:20 1029 30.39 858 25.34 -5 23 68 -10 13.9
08:25 1029 30.39 858 25.34 -4.9 23.2 67 -10.1 13.8
08:30 1029 30.39 858 25.34 -5.1 22.8 67 -10.4 13.3
08:35 1029 30.39 858 25.34 -5 23 67 -10.3 13.5
08:40 1029 30.39 858 25.34 -4.8 23.4 64 -10.6 13
08:45 1029 30.39 858 25.34 -4.8 23.4 65 -10.4 13.2
08:50 1029 30.39 858 25.34 -4.7 23.6 65 -10.4 13.4
08:55 1029 30.39 858 25.34 -4.3 24.3 63 -10.3 13.4
09:00 1029 30.39 858 25.34 -4.1 24.6 62 -10.5 13.2
09:05 1029 30.39 858 25.34 -4 24.7 63 -10.1 13.7
09:10 1029 30.39 858 25.34 -3.8 25.2 61 -10.3 13.4
09:15 1029 30.39 858 25.34 -3.6 25.5 58 -10.6 12.9
09:20 1029 30.39 858 25.34 -3.8 25.1 60 -10.6 13
09:25 1029 30.39 858 25.34 -4 24.9 60 -10.7 12.8
09:30 1029 30.39 859 25.37 -3.8 25.2 59 -10.7 12.8
09:35 1029 30.39 858 25.34 -3.7 25.3 60 -10.5 13.1
09:40 1029 30.39 858 25.34 -3.9 24.9 61 -10.5 13.2
09:45 1029 30.39 858 25.34 -4.6 23.7 64 -10.5 13.1
09:50 1029 30.39 858 25.34 -4.7 23.5 64 -10.5 13.1
09:55 1029 30.39 858 25.34 -4.3 24.3 62 -10.5 13
10:00 1029 30.39 858 25.34 -4 24.8 62 -10.2 13.6
10:05 1029 30.39 858 25.34 -3.5 25.7 58 -10.5 13
10:10 1029 30.39 858 25.34 -3.2 26.3 56 -10.7 12.8
10:15 1029 30.39 858 25.34 -2.7 27.1 54 -10.9 12.4
10:20 1029 30.39 858 25.34 -2.4 27.6 54 -10.5 13.1
10:25 1029 30.39 858 25.34 -2 28.3 54 -10.2 13.6
10:30 1029 30.39 858 25.34 -2.1 28.3 52 -10.6 12.8
10:35 1029 30.39 858 25.34 -2.3 27.8 53 -10.6 12.9
10:40 1029 30.39 858 25.34 -2 28.3 51 -10.9 12.4
10:45 1029 30.39 858 25.34 -1.8 28.8 51 -10.5 13
10:50 1029 30.39 858 25.34 -1.9 28.5 54 -10 14
10:55 1029 30.39 858 25.34 -1.8 28.8 52 -10.4 13.2
11:00 1029 30.39 858 25.34 -1.6 29 52 -10.3 13.5
11:05 1029 30.39 858 25.34 -1.8 28.7 52 -10.4 13.2
11:10 1029 30.39 858 25.34 -1.8 28.7 54 -9.9 14.1
11:15 1029 30.39 858 25.34 -1.5 29.3 52 -10.2 13.7
11:20 1029 30.39 858 25.34 -1.9 28.6 53 -10.2 13.6
11:25 1029 30.39 858 25.34 -2 28.3 54 -10.2 13.7
11:30 1029 30.39 858 25.34 -2.3 27.8 54 -10.4 13.2
11:35 1029 30.39 858 25.34 -2.3 27.8 54 -10.4 13.2
11:40 1029 30.39 858 25.34 -2.3 27.9 57 -9.8 14.4
11:45 1028 30.36 858 25.34 -2.5 27.5 57 -9.9 14.1
11:50 1028 30.36 858 25.34 -2.5 27.4 57 -10 14
11:55 1028 30.36 858 25.34 -2.3 27.9 56 -9.9 14.2
12:00 1028 30.36 857 25.31 -2.2 28 57 -9.7 14.5
12:05 1028 30.36 857 25.31 -2.2 28.1 58 -9.4 15
12:10 1028 30.36 857 25.31 -2.2 28.1 57 -9.6 14.7
12:15 1028 30.36 857 25.31 -2.3 27.8 56 -9.9 14.3
12:20 1028 30.36 857 25.31 -2.3 27.8 59 -9.4 15.1
12:25 1028 30.36 858 25.34 -2.4 27.7 61 -9 15.8
12:30 1028 30.36 857 25.31 -3.6 25.4 67 -8.9 16
12:35 1028 30.36 857 25.31 -3.8 25.1 65 -9.5 14.9
12:40 1028 30.36 857 25.31 -3.5 25.8 65 -9.1 15.6
12:45 1028 30.36 857 25.31 -3.1 26.4 65 -8.9 16.1
12:50 1028 30.36 857 25.31 -2.6 27.3 60 -9.3 15.3
12:55 1028 30.36 857 25.31 -2.5 27.5 60 -9.3 15.2
13:00 1028 30.36 857 25.31 -2.5 27.4 60 -9.3 15.3
13:05 1028 30.36 857 25.31 -2.7 27.1 59 -9.6 14.7
13:10 1028 30.36 857 25.31 -2.7 27.1 60 -9.5 14.8
13:15 1028 30.36 857 25.31 -3.1 26.4 63 -9.2 15.4
13:20 1028 30.36 857 25.31 -3.4 25.9 64 -9.3 15.3
13:25 1028 30.36 857 25.31 -3.5 25.8 62 -9.8 14.3
13:30 1028 30.36 858 25.34 -3 26.5 58 -10.2 13.7
13:35 1028 30.36 858 25.34 -2.9 26.9 56 -10.4 13.3
13:40 1028 30.36 857 25.31 -3.3 26.1 60 -10 14.1
13:45 1028 30.36 857 25.31 -3.5 25.7 59 -10.4 13.2
13:50 1028 30.36 858 25.34 -3.4 25.8 58 -10.7 12.8
13:55 1028 30.36 858 25.34 -3.2 26.2 58 -10.4 13.3
14:00 1028 30.36 858 25.34 -3.2 26.3 58 -10.3 13.5
14:05 1029 30.39 858 25.34 -2.9 26.7 56 -10.4 13.2
14:10 1029 30.39 858 25.34 -2.5 27.4 55 -10.4 13.3
14:15 1029 30.39 858 25.34 -2.7 27.2 56 -10.3 13.4
14:20 1029 30.39 858 25.34 -2.8 26.9 56 -10.5 13.1
14:25 1029 30.39 858 25.34 -3 26.7 56 -10.6 12.9
14:30 1029 30.39 858 25.34 -3.2 26.3 57 -10.4 13.3
14:35 1029 30.39 858 25.34 -3.2 26.2 58 -10.4 13.3
14:40 1029 30.39 858 25.34 -3.2 26.2 57 -10.6 13
14:45 1029 30.39 858 25.34 -3.1 26.4 57 -10.5 13
14:50 1029 30.39 858 25.34 -3.1 26.4 56 -10.6 13
14:55 1029 30.39 858 25.34 -2.8 26.9 56 -10.3 13.4
15:00 1029 30.39 858 25.34 -3.1 26.4 58 -10.3 13.4
15:05 1029 30.39 858 25.34 -3.1 26.5 58 -10.3 13.4
15:10 1029 30.39 858 25.34 -3.1 26.4 57 -10.4 13.2
15:15 1029 30.39 858 25.34 -2.9 26.8 57 -10.3 13.5
15:20 1029 30.39 858 25.34 -3.1 26.4 58 -10.2 13.7
15:25 1029 30.39 858 25.34 -3.6 25.5 60 -10.3 13.4
15:30 1029 30.39 858 25.34 -3.9 24.9 60 -10.5 13.1
15:35 1029 30.39 858 25.34 -4 24.8 62 -10.3 13.4
15:40 1029 30.39 858 25.34 -4.1 24.6 62 -10.4 13.2
15:45 1029 30.39 858 25.34 -4.1 24.6 61 -10.5 13.1
15:50 1029 30.39 859 25.37 -4.3 24.3 61 -10.6 12.8
15:55 1029 30.39 859 25.37 -4.3 24.3 60 -11 12.2
16:00 1029 30.39 859 25.37 -4.4 24.1 63 -10.4 13.3
16:05 1030 30.42 859 25.37 -4.6 23.7 65 -10.2 13.6
16:10 1030 30.42 859 25.37 -4.7 23.6 68 -9.7 14.6
16:15 1030 30.42 859 25.37 -4.7 23.5 69 -9.6 14.7
16:20 1030 30.42 859 25.37 -4.8 23.3 69 -9.6 14.7
16:25 1030 30.42 859 25.37 -4.9 23.2 69 -9.7 14.6
16:30 1030 30.42 859 25.37 -5 22.9 71 -9.6 14.8
16:35 1030 30.42 859 25.37 -5.1 22.9 71 -9.6 14.8
16:40 1030 30.42 859 25.37 -5.2 22.7 72 -9.5 14.8
16:45 1030 30.42 859 25.37 -5.1 22.7 71 -9.6 14.8
16:50 1030 30.42 859 25.37 -5.3 22.5 72 -9.5 14.9
16:55 1030 30.42 860 25.4 -5.5 22.1 72 -9.8 14.4
17:00 1030 30.42 860 25.4 -5.5 22.1 72 -9.8 14.3
17:05 1030 30.42 860 25.4 -5.7 21.8 73 -9.8 14.4
17:10 1030 30.42 860 25.4 -5.9 21.4 73 -10 14
17:15 1031 30.45 860 25.4 -5.9 21.4 72 -10.1 13.8
17:20 1031 30.45 860 25.4 -5.9 21.3 72 -10.3 13.5
17:25 1031 30.45 860 25.4 -6 21.2 73 -10.2 13.7
17:30 1031 30.45 860 25.4 -6.1 21 74 -10.1 13.8
17:35 1031 30.45 860 25.4 -6.1 21 71 -10.5 13
17:40 1031 30.45 860 25.4 -6 21.2 72 -10.2 13.7
17:45 1031 30.45 860 25.4 -5.7 21.7 72 -10 14
17:50 1031 30.45 860 25.4 -5.8 21.6 71 -10.2 13.7
17:55 1031 30.45 860 25.4 -5.8 21.6 72 -10 14
18:00 1031 30.45 860 25.4 -5.9 21.4 73 -10 14.1
18:05 1031 30.45 860 25.4 -5.8 21.6 72 -10 14
18:10 1031 30.45 861 25.43 -5.4 22.2 70 -10 14
18:15 1031 30.45 860 25.4 -5 23.1 69 -9.7 14.5
18:20 1031 30.45 860 25.4 -4.9 23.2 70 -9.6 14.7
18:25 1031 30.45 861 25.43 -5 23 72 -9.3 15.2
18:30 1031 30.45 861 25.43 -5 23 71 -9.5 14.9
18:35 1031 30.45 861 25.43 -5 23 72 -9.3 15.3
18:40 1032 30.47 861 25.43 -4.9 23.2 71 -9.4 15.1
18:45 1032 30.47 861 25.43 -4.7 23.6 71 -9.2 15.4
18:50 1032 30.47 861 25.43 -4.8 23.4 72 -9.1 15.6
18:55 1032 30.47 861 25.43 -5.4 22.3 75 -9.2 15.4
19:00 1032 30.47 861 25.43 -5.5 22 76 -9.2 15.5
19:05 1032 30.47 861 25.43 -5.2 22.6 74 -9.1 15.6
19:10 1032 30.47 861 25.43 -5.1 22.8 74 -9 15.8
19:15 1032 30.47 861 25.43 -5.1 22.9 75 -8.9 16
19:20 1032 30.47 861 25.43 -5 23.1 74 -8.9 16
19:25 1032 30.47 861 25.43 -4.8 23.3 74 -8.8 16.1
19:30 1032 30.47 861 25.43 -4.9 23.2 73 -9 15.8
19:35 1032 30.47 861 25.43 -4.9 23.1 73 -9 15.7
19:40 1032 30.47 861 25.43 -4.9 23.2 73 -9 15.8
19:45 1032 30.47 861 25.43 -5 23.1 73 -9.1 15.6
19:50 1032 30.47 862 25.45 -5.1 22.7 74 -9.1 15.5
19:55 1032 30.47 861 25.43 -5.3 22.5 73 -9.4 15
20:00 1032 30.47 862 25.45 -5.3 22.4 72 -9.7 14.6
20:05 1032 30.47 862 25.45 -5.4 22.3 71 -9.9 14.2
20:10 1032 30.47 862 25.45 -5.4 22.3 72 -9.7 14.6
20:15 1032 30.47 862 25.45 -5.9 21.4 74 -9.9 14.2
20:20 1032 30.47 862 25.45 -6.2 20.9 76 -9.8 14.3
20:25 1032 30.47 862 25.45 -6 21.2 73 -10.1 13.8
20:30 1032 30.47 862 25.45 -5.9 21.3 72 -10.2 13.7
20:35 1032 30.47 862 25.45 -5.9 21.4 72 -10.1 13.7
20:40 1033 30.5 862 25.45 -5.8 21.5 72 -10.1 13.8
20:45 1033 30.5 862 25.45 -5.6 21.8 71 -10.1 13.9
20:50 1033 30.5 862 25.45 -5.6 22 70 -10.1 13.7
20:55 1033 30.5 862 25.45 -5.7 21.8 71 -10.1 13.8
21:00 1033 30.5 862 25.45 -5.7 21.7 71 -10.2 13.6
21:05 1033 30.5 862 25.45 -5.5 22 70 -10.1 13.8
21:10 1033 30.5 862 25.45 -5.4 22.3 70 -10 14
21:15 1033 30.5 862 25.45 -5.3 22.4 69 -10.2 13.7
21:20 1033 30.5 862 25.45 -5.3 22.4 69 -10.1 13.7
21:25 1033 30.5 862 25.45 -5.5 22.2 70 -10.1 13.8
21:30 1033 30.5 862 25.45 -5.5 22.1 70 -10.2 13.6
21:35 1033 30.5 862 25.45 -5.7 21.8 71 -10.2 13.6
21:40 1033 30.5 862 25.45 -6.1 21.1 72 -10.2 13.6
21:45 1033 30.5 862 25.45 -6.4 20.5 73 -10.4 13.3
21:50 1033 30.5 862 25.45 -6.5 20.2 74 -10.5 13.1
21:55 1033 30.5 862 25.45 -6.4 20.6 73 -10.4 13.3
22:00 1033 30.5 862 25.45 -6.2 20.8 73 -10.4 13.3
22:05 1033 30.5 862 25.45 -6.1 20.9 71 -10.5 13.1
22:10 1033 30.5 862 25.45 -6.1 21.1 72 -10.4 13.3
22:15 1033 30.5 862 25.45 -6.2 20.8 73 -10.4 13.3
22:20 1033 30.5 862 25.45 -6.3 20.6 73 -10.4 13.2
22:25 1033 30.5 862 25.45 -6.6 20 74 -10.5 13.1
22:30 1033 30.5 862 25.45 -7 19.4 76 -10.6 13
22:35 1033 30.5 862 25.45 -7 19.4 76 -10.5 13.2
22:40 1033 30.5 862 25.45 -7 19.4 77 -10.4 13.3
22:45 1033 30.5 862 25.45 -7.1 19.3 78 -10.3 13.5
22:50 1033 30.5 862 25.45 -7.4 18.7 78 -10.6 13
22:55 1033 30.5 863 25.48 -7.4 18.6 80 -10.4 13.3
23:00 1033 30.5 862 25.45 -7.4 18.8 78 -10.6 12.9
23:05 1033 30.5 862 25.45 -7.1 19.1 77 -10.6 13
23:10 1033 30.5 862 25.45 -6.6 20.1 74 -10.6 12.9
23:15 1033 30.5 862 25.45 -6.4 20.5 72 -10.6 13
23:20 1033 30.5 862 25.45 -6.5 20.3 72 -10.7 12.7
23:25 1033 30.5 862 25.45 -6.9 19.6 74 -10.7 12.7
23:30 1033 30.5 862 25.45 -7.7 18.2 80 -10.6 13
23:35 1033 30.5 862 25.45 -8.1 17.5 80 -10.9 12.5
23:40 1033 30.5 862 25.45 -8.3 17.1 81 -11 12.2
23:45 1033 30.5 862 25.45 -8.5 16.8 82 -11.1 12.1
23:50 1033 30.5 862 25.45 -8.6 16.4 82 -11.2 11.8
23:55 1033 30.5 862 25.45 -8.9 16 83 -11.3 11.7
24:00 1033 30.5 862 25.45 -8.9 15.9 83 -11.2 11.8